www.pogodaiklimat.ru

ПОГОДА в Оуэнсборо, KY

  • Прогноз погоды в Оуэнсборо
  • Монитор погоды в Оуэнсборо
  • Климат в Оуэнсборо

АРХИВ ПОГОДЫ в Оуэнсборо

Время (UTC), дата Ветер
(напр.,м/с)
 
Видим.   Явления Облачность Т
(С)
Тd
(С)
f
(%)
Тe
(С)
Тes
(С)
Комфортность

P
(гПа)

Po
(гПа)
Тmin
(С)
Tmax
(С)
R
(мм)
SD
(см)
05:56 18.06 ЮВ  16 км  слабый дождь  10/2 210 м
[средняя] 
+21.7  +21.7  100  +28  +28  душно  1013.3  998.9         
06:44 18.06 Ю  16 км    10/8 660 м
[средняя] 
+22.0  +21.0  94  +28  +28  душно    998.6         
06:56 18.06 Ю  16 км    10/5 660 м
[средняя] 
+21.7  +21.1  96  +28  +28  душно  1013.3  998.9         
07:56 18.06 ЮВ  16 км    10/0 2700 м
[средняя] 
+21.7  +21.1  96  +28  +28  душно  1013.4  998.9         
08:56 18.06 В  16 км    10/2 1350 м
[средняя] 
+21.7  +21.1  96  +28  +28  душно  1012.9  998.6         
09:56 18.06 Ю  16 км    8/5 1260 м
[средняя] 
+21.7  +21.1  96  +28  +28  душно  1013.6  998.9         
10:56 18.06 Ю  16 км    10/0 2250 м
[средняя] 
+22.2  +21.7  97  +29  +29  очень
душно 
1013.7  999.3  +21.1  +22.2     
11:56 18.06 Ю  16 км    8/2 210 м
[средняя] 
+23.3  +21.7  91  +32  +32  очень
душно 
1013.4  998.9         
12:38 18.06 Ю  11 км    8/8 270 м
[средняя] 
+24.0  +22.0  89  +31  +32  очень
душно 
  998.9         
12:56 18.06 Ю  11 км    10/8 270 м
[средняя] 
+23.3  +21.7  91  +32  +32  очень
душно 
1013.6  998.9         
13:56 18.06 ЮЗ  16 км    8/8 360 м  +24.4  +21.7  85  +31  +33  очень
душно 
1013.6  998.9      0.3   
14:48 18.06 Ю  16 км    8/8 540 м  +26.0  +22.0  79  +34  +36  очень
душно 
  998.6         
14:56 18.06 Ю  16 км    8/8 540 м  +25.0  +21.1  79  +32  +33  очень
душно 
1013.3  998.6         
15:56 18.06 ЮЗ  6 км  дождь, дымка  10/10 480 м  +23.9  +22.2  90  +31  +31  очень
душно 
1013.2  998.6         
16:27 18.06 ЮЗ  10 км  слабый дождь, дымка  8/8 1110 м  +24.0  +22.0  89  +31  +35  очень
душно 
  998.3         
16:56 18.06 З  10 км  слабый дождь, дымка  8/8 510 м  +24.4  +22.8  91  +32  +35  очень
душно 
1013.0  998.3  +22.2  +25.6     
17:56 18.06 З  10 км  слабый дождь  8/8 630 м
[средняя] 
+24.4  +21.1  82  +31  +34  очень
душно 
1012.1  997.3         
18:56 18.06   16 км    2/0 3000 м
[средняя] 
+26.1  +20.0  69  +32  +54  опасность
солнечного
удара 
1011.6  996.9         
19:56 18.06 ЮЗ  16 км    ясно  +27.8  +20.6  65  +35  +49  очень
душно 
1010.6  995.9         
20:56 18.06 нст  16 км    8/8 900 м  +28.3  +21.1  65  +36  +38  очень
душно 
1010.2  995.6         
21:56 18.06 ЮЗ  16 км    8/5 1050 м
[средняя] 
+27.2  +21.7  72  +35  +37  очень
душно 
1009.6  994.9         
22:56 18.06 СЗ  16 км    8/2 870 м
[средняя] 
+27.2  +21.7  72  +35  +36  очень
душно 
1009.7  995.3  +23.9  +28.9     
23:56 18.06 Ю  16 км  слабый дождь  10/8 990 м
[средняя] 
+23.9  +22.8  94  +32  +32  очень
душно 
1009.8  995.3         
00:56 19.06 В  16 км    10/0 2400 м
[средняя] 
+23.9  +21.7  88  +31  +31  очень
душно 
1010.0  995.6         
01:56 19.06 В  16 км    2/2 1200 м  +23.3  +21.7  91  +32  +32  очень
душно 
1010.2  995.6         
02:56 19.06   16 км    5/5 1260 м  +22.8  +21.7  94  +31  +31  очень
душно 
1010.4  995.9         
03:56 19.06   16 км    2/0 3000 м
[средняя] 
+22.2  +21.7  97  +29  +29  очень
душно 
1010.4  995.6         
04:56 19.06   16 км    10/10 1230 м  +22.2  +21.7  97  +29  +29  очень
душно 
1009.8  995.3  +22.2  +27.2     
05:56 19.06   16 км    ясно  +22.2  +21.1  93  +29  +29  очень
душно 
1009.2  994.6         
06:56 19.06 Ю  16 км    5/0 3600 м
[средняя] 
+21.7  +21.1  96  +28  +28  душно  1008.7  994.3         
07:56 19.06 Ю  16 км    5/0 3300 м
[средняя] 
+21.7  +21.1  96  +28  +28  душно  1008.9  994.3         
08:56 19.06   16 км    ясно  +21.7  +21.1  96  +28  +28  душно  1008.7  994.3         
09:56 19.06 ЮВ  16 км    ясно  +21.1  +20.6  97  +26  +26  душно  1008.4  993.9         
10:56 19.06 Ю  16 км    ясно  +22.8  +21.1  90  +30  +30  очень
душно 
1008.2  993.6  +21.1  +22.8     
11:56 19.06 Ю  16 км    ясно  +23.9  +22.2  90  +31  +32  очень
душно 
1008.7  994.3         
12:56 19.06 З  10 км  мгла  ясно  +25.6  +22.8  85  +34  +38  очень
душно 
1008.8  994.3         
13:56 19.06 ЮЗ  10 км  мгла  2/0 3300 м
[средняя] 
+27.2  +22.2  74  +35  +41  очень
душно 
1008.5  993.9         
14:56 19.06 Ю  16 км    ясно  +28.3  +22.2  70  +37  +45  очень
душно 
1008.0  993.6         
15:56 19.06 Ю  16 км    8/8 900 м  +28.9  +22.2  67  +38  +40  очень
душно 
1007.1  992.6         
16:56 19.06 ЮЗ  16 км    8/8 1080 м  +28.3  +21.7  67  +36  +38  очень
душно 
1006.3  991.9  +22.8  +28.9     
17:56 19.06 ЮВ  7
{11} 
6 км  дождь  8/8 1110 м
[средняя] 
+26.1  +22.2  79  +34  +35  очень
душно 
1006.0  991.6         
18:02 19.06   11 км  гроза со слабым дождем  8/8 450 м  +25.0  +21.0  78  +31  +37  очень
душно 
  991.3         
18:24 19.06 нст  16 км  гроза  5/5 1140 м  +27.0  +23.0  79  +36  +47  очень
душно 
  990.9         
18:39 19.06 ЮЗ  16 км    2/2 1140 м  +28.0  +23.0  74  +37  +45  очень
душно 
  990.6         
18:56 19.06 ЮЗ  9
{11} 
16 км  слабый дождь  8/5 1260 м
[средняя] 
+25.0  +20.6  77  +31  +31  очень
душно 
1005.2  990.6         
19:56 19.06 ЮЗ  16 км    2/0 3000 м
[средняя] 
+26.1  +22.2  79  +34  +44  очень
душно 
1004.8  990.3      3.8   
20:56 19.06 З  16 км    ясно  +25.6  +22.2  82  +33  +44  очень
душно 
1004.8  990.3         
21:56 19.06 СЗ  16 км  гроза, дождь  8/5 960 м
[средняя] 
+24.4  +22.8  91  +32  +33  очень
душно 
1005.2  990.6         

 

Местоположение метеостанции Owensboro-Daviess County Airport: широта 37.7400 долгота -87.1667 высота над уровнем моря 124 м.

В архиве по умолчанию представлена погода в Оуэнсборо за последние 1-2 суток. Обновление информации о фактической погоде в базе происходит ежечасно! Архивные данные за месяц целиком и за предыдущие месяцы Вы можете получить, выбрав интересующий диапазон дат из раскрывающегося списка и нажав кнопку "Ввод!".

Внимание! Архив погоды МЕТАР в базе сайта хранится не более 60 дней. Нет смысла пытаться выбрать более раннюю дату.

Внимание! Время в таблицах - всемирное. Для получения местного времени необходимо прибавить поправку, которая в Оуэнсборо равна -6 ч.

Ветер - указаны скорость ветра в м/с и направление, откуда дует ветер: С - северный, СВ - северо-восточный, В - восточный, ЮВ - юго-восточный, Ю - южный, ЮЗ - юго-западный, З - западный, СЗ - северо-западный.
Видимость - горизонтальная дальность видимости в метрах или километрах. При видимости от 1 до 10 км при отсутствии осадков обычно наблюдается дымка, при ухудшении видимости до 1 км и менее - туман. В сухую погоду видимость может ухудшаться дымом, пылью или мглою.
Атмосферные явления - указаны явления, наблюдавшиеся в указанный момент времени.
Облачность - указаны через наклонную черту верхняя и нижняя облачность в баллах и высота нижней границы облаков в метрах. Внимание: облачность, как и прочие метеорологические величины в США измеряются автоматическими метеостанциями. Указанные значения в баллах носят условный характер и показывают процент времени, в течение которого, в среднем, лазерный луч высотомера отражался от облаков обратно.
T - Температура воздуха - температура, измеренная на высоте 2 м над землей.
Td - Температура точки росы - температура, при понижении до которой содержащийся в воздухе водяной пар достигнет насыщения.
f - Относительная влажность воздуха - влажноcть воздуха, измеренная на высоте 2 м над землей.
Te - Эффективная температура - температура, которую ощущает одетый по сезону человек в тени. Характеристика душности погоды. При расчете учитывается влияние влажности воздуха и скорости ветра на теплоощущения человека.
Tes - Эффективная температура на солнце - температура, которую ощущает человек, с поправкой на солнечный нагрев. Характеристика знойности погоды. Зависит от высоты солнца над горизонтом, облачности и скорости ветра. Ночью, в пасмурную погоду, а также при ветре 12 м/с и более поправка равна нулю.
P - Атмосферное давление - приведенное к уровню моря атмосферное давление.
Po - Атмосферное давление - измеренное на уровне метеостанции атмосферное давление.
Tmin - Минимальная температура - минимум температуры воздуха на высоте 2 м над землей.
Tmax - Максимальная температура - максимум температуры воздуха на высоте 2 м над землей.
R - Количество осадков - Количество выпавших осадков за 3 или 6 часов, мм.
SD - Снежный покров - Высота снежного покрова, см.